Regional Weather Roundup
Issued by NWS Jackson, KY

Home | Current Version | Previous Version | Graphics & Text | Print | Product List | Glossary On
Versions: 1 2 3 4 5 6 7 8 9 10 11 12 13 14 15 16 17 18 19 20 21 22 23 24 25 26 27 28 29 30 31 32 33 34 35 36 37 38 39 40 41 42 43 44 45 46 47 48 49 50
000
ASUS43 KJKL 290310
RWRJKL

EAST KENTUCKY HOURLY WEATHER ROUNDUP
NATIONAL WEATHER SERVICE JACKSON KY
1100 PM EDT SAT MAR 28 2015

NOTE: "FAIR" INDICATES FEW OR NO CLOUDS BELOW 12,000 FEET WITH
NO SIGNIFICANT WEATHER AND/OR OBSTRUCTIONS TO VISIBILITY.

* THESE REPORTS ARE NOT UNDER NWS QUALITY CONTROL AND MAY NOT
  REPORT WEATHER SUCH AS PRECIPITATION AND FOG.

KYZ079-080-083-085-087-088-110-112-115-119-120-290400
...EASTERN KENTUCKY...

CITY           SKY/WX    TMP DP  RH WIND       PRES   REMARKS
JACKSON        CLEAR     28  10  46 NE3       30.30R
LONDON         CLEAR     31  13  47 CALM      30.31R
SOMERSET*      CLEAR     30  16  55 CALM      30.34R
MONTICELLO*    CLEAR     27  19  71 CALM      30.35R
MIDDLESBORO*   CLEAR     31  18  60 CALM      30.31R
HAZARD APT*    CLEAR     30   9  40 CALM      30.32R
BLACK MTN*       N/A     16  14  93 NE6         N/A  WCI   7
PIKEVILLE APT* CLEAR     28   9  43 N6        30.30R WCI  22
BIG SANDY*     CLEAR     28  10  45 N5        30.31R WCI  23
MOREHEAD APT*  MOCLDY    28  10  47 CALM      30.35R
$$

KYZ035-036-041-042-044-050-067-078-099-290400
...CENTRAL KENTUCKY...

CITY           SKY/WX    TMP DP  RH WIND       PRES   REMARKS
MT STERLING*   CLEAR     30  14  51 E3        30.34R
FLEMING/MASON* CLEAR     27  14  59 E5        30.35R WCI  21
DANVILLE*      CLEAR     28  19  69 CALM      30.34R
RICHMOND*      CLEAR     30  16  55 NE3       30.32R
LEXINGTON      CLEAR     28  12  51 NE7       30.33R WCI  21
FRANKFORT      CLEAR     26  17  68 CALM      30.33R
$$

KYZ091>093-OHZ055-061-077-WVZ005-015-034-035-042-290400
...SOUTHERN OHIO/WEST VIRGINIA...

CITY           SKY/WX    TMP DP  RH WIND       PRES   REMARKS
COVINGTON      CLEAR     31  11  43 NE6       30.34R WCI  25
COLUMBUS       CLEAR     25  12  58 CALM      30.34R
DAYTON         CLEAR     28  14  55 CALM      30.34R
WILMINGTON     CLEAR     25  15  66 NE3       30.33R
HUNTINGTON     CLEAR     28  10  46 N3        30.33R
CHARLESTON     CLEAR     28   9  44 NW5       30.32R WCI  23
PINEVILLE*     CLEAR     28  15  58 MISG      30.31R
BECKLEY        CLEAR     22   4  46 NW6       30.21R WCI  14
BLUEFIELD      CLEAR     24   5  44 CALM      30.19R
$$

VAZ002-007-008-TNZ017-027-036-066-071-290400
...SOUTHWEST VIRGINIA/EAST TENNESSEE...

CITY           SKY/WX    TMP DP  RH WIND       PRES   REMARKS
WISE*          CLEAR     28   9  43 NW3       30.23R
JONESVILLE*    CLEAR     30  12  47 CALM      30.31R
ABINGDON*      CLEAR     32   7  35 NW3       30.24R
BRISTOL        CLEAR     31   9  39 N3        30.27R
KNOXVILLE      CLEAR     37  12  35 N7        30.29R WCI  32
OAK RIDGE      CLEAR     37  13  37 CALM      30.31R
CROSSVILLE     CLEAR     32  11  41 N5        30.27R WCI  27
NASHVILLE      CLEAR     37  16  42 NE3       30.33R
$$

...KEY TO REMARKS...
VSB - VISIBILITY IN MILES
WCI - WIND CHILL INDEX
HX  - HEAT INDEX

$$


USA.gov is the U.S. government's official web portal to all federal, state and local government web resources and services.